Regional Weather Roundup
Issued by NWS Charleston, SC

Current Version | Previous Version | Graphics & Text | Print | Product List | Glossary On
Versions: 1 2 3 4 5 6 7 8 9 10 11 12 13 14 15 16 17 18 19 20 21 22 23 24 25 26 27 28 29 30 31 32 33 34 35 36 37 38 39 40 41 42 43 44 45 46 47 48 49 50
000 ASUS42 KCHS 261127 RWRCHS REGIONAL WEATHER ROUNDUP NATIONAL WEATHER SERVICE CHARLESTON SC 700 AM EDT WED JUL 26 2017 NOTE: "FAIR" INDICATES FEW OR NO CLOUDS BELOW 12,000 FEET WITH NO SIGNIFICANT WEATHER AND/OR OBSTRUCTIONS TO VISIBILITY. NOT ALL STATIONS ARE QUALITY CONTROLLED. USE DATA WITH CAUTION... ESPECIALLY DEWPOINT OBSERVATIONS. SCZ027-030-031-034>040-042>050-261200- ...SOUTHEAST SOUTH CAROLINA... CITY SKY/WX TMP DP RH WIND PRES REMARKS N CHARLESTON TSTM 75 69 81 NE12 30.08R WATERFRONT PRK N/A 79 74 85 VRB2 30.05S JOHNS ISLAND PTSUNNY 77 75 94 CALM 30.10R PINOPOLIS N/A 81 75 83 CALM 30.01R MONCKS CORNER FAIR 73 72 94 CALM 30.10R SUMMERVILLE CLOUDY 73 72 94 CALM 30.10R BEAUFORT MCAS CLOUDY 77 76 96 N3 30.09R BEAUFORT ARPT PTSUNNY 77 73 88 CALM 30.09R HILTON HEAD IS CLOUDY 77 75 94 CALM 30.08R WALTERBORO NOT AVBL ALLENDALE NOT AVBL ...SOUTHERN MIDLANDS AND PEE DEE... CITY SKY/WX TMP DP RH WIND PRES REMARKS GEORGETOWN FAIR 75 73 94 CALM 30.09S KINGSTREE FAIR 73 72 94 NE3 30.10R ORANGEBURG PTCLDY 74 72 93 CALM 30.10R BARNWELL NOT AVBL AIKEN FAIR 72 70 94 CALM 30.14R MANNING FAIR 73 72 94 CALM 30.10R COLUMBIA PTCLDY 74 71 91 CALM 30.09R SUMTER PTCLDY 73 71 92 CALM 30.08R FLORENCE CLOUDY 77 76 96 E12G18 30.12R MYRTLE BEACH CLOUDY 79 75 89 N6 30.11 N MYRTLE BEACH CLOUDY 78 76 93 NE9 30.09F $$ GAZ063-065-086>088-099>101-113>116-118-119-134>141-150-261200- ...SOUTHEAST GEORGIA... CITY SKY/WX TMP DP RH WIND PRES REMARKS SAVANNAH ARPT CLOUDY 75 73 93 NW5 30.09R HUNTER AAF MOCLDY 76 74 95 CALM 30.06R FORT STEWART CLOUDY 75 72 91 CALM 30.07R STATESBORO CLOUDY 74 32 21 CALM 30.11R SYLVANIA DRIZZLE 73 73 100 CALM 30.12R CLAXTON CLOUDY 75 74 95 CALM 30.11R ...CSRA...CENTRAL AND FAR SOUTHEAST GEORGIA... CITY SKY/WX TMP DP RH WIND PRES REMARKS THOMSON CLEAR 71 70 94 CALM 30.16R AUGUSTA-BUSH PTCLDY 74 72 93 S3 30.09R FOG AUGUSTA-DANIEL CLEAR 77 69 76 CALM 30.10R SWAINSBORO CLOUDY 72 72 100 CALM 30.11S VIDALIA CLOUDY 75 73 94 E3 30.11R EASTMAN CLOUDY 73 73 98 CALM 30.13R FOG HAZLEHURST CLOUDY 76 76 100 CALM 30.10R ALMA CLOUDY 76 73 91 CALM 30.09R FOG WAYCROSS CLOUDY 77 77 100 CALM 30.10R JESUP NOT AVBL BAXLEY CLOUDY 73 73 100 CALM 30.10R BRUNSWICK CLOUDY 75 75 100 CALM 30.10R SAINT SIMONS CLOUDY 77 76 96 CALM 30.09R $$ SCZ027-028-034-036>038-045-046-048>050-GAZ119-141-261200- ...LAKE AND SUPPLEMENTAL COASTAL OBSERVATIONS... STATION/POSITION TIME TEMP WIND PRES WAVE SWELL AIR SEA DIR/SP/G HT/PER HT/PER/DIR (UTC) (F) (DEG/KT/KT) (MB) (FT/S) (FT/S/D) WINYAH BAY 1045 76 320/ 2 1018.0S LAKE MURRAY 1050 76 CALM / 1 1018.3R ACE BASIN NERRS 1030 76 CALM 1019.0R FORT PULASKI 1100 78 85 350/ 4/ 4 1019.1 SAPELO ISLAND 1100 76 CALM 1019.0 $$ ANZ835-935-AMZ111-154-330-350-352-354-370-450-454-472-261200- ...C-MAN AND BUOY OBSERVATIONS... STATION/POSITION TIME TEMP WIND PRES WAVE SWELL AIR SEA DIR/SP/G HT/PER HT/PER/DIR (UTC) (F) (DEG/KT/KT) (MB) (FT/S) (FT/S/D) BUOY 41004 1110 81 83 200/ 8/ 10 1018.5 BUOY 41008 1050 80 81 170/ 6/ 6 1018.4R 2/ 8 2/100/ 8 FOLLY BEACH CMAN 1100 77 300/ 2/ 3 1019.6R CAPERS NEARSHORE 1108 78 84 330/ 8/ 12 1018.9R FRIPP NEARSHORE 1108 82 84 100/ 4/ 6 1018.5R STATION/POSITION TIME TEMP WIND PRES WAVE SWELL AIR SEA DIR/SP/G HT/PER HT/PER/DIR (UTC) (F) (DEG/KT/KT) (MB) (FT/S) (FT/S/D) 5E ST. MARYS GA 1100 78 N/A 1/11 FRYING PAN BUOY 1110 81 82 60/ 6/ 8 1018.1 BUOY 41025 1050 81 83 30/ 14/ 16 1019.3R 3/ 5 2/ 90/ 6 CAPE LOOKOUT NC 1100 78 50/ 14/ 17 1019.5R BUOY 41002 1050 80 83 280/ 14/ 17 1019.0F 3/ 6 2/100/ 9 BUOY 41010 1110 84 84 180/ 8/ 10 1019.5 ST AUGUSTINE FL 1100 77 74 240/ 4/ 5 1019.1R $$

USA.gov is the U.S. government's official web portal to all federal, state and local government web resources and services.